Location: Bittkow
(50.3000°N, 19.0000°E)
Time: 12:42:29
(UTC+00:00)

Cosmos 2278 - Pass Details

Date: 19 September 2020
Orbit: 841 x 852 km, 71.1° (Epoch: 23 October)

Event Time Altitude Azimuth Distance (km) Brightness Sun altitude
Exits shadow 03:28:18 12° 243° (WSW) 2,351 5.4 -9.9°
Maximum altitude 03:33:16 40° 310° (NW) 1,246 4.3 -9.2°
Drops below altitude 10° 03:38:37 10° 20° (NNE) 2,489 6.6 -8.3°
Sets 03:41:15 0° 28° (NNE) 3,426 7.5 -7.9°
